Simultaneous Nadir Overpasses (SNOs) Predictions

Prediction of SNOs between METOP-B and NOAA-19 Satellite Orbit:

Table of predicted SNOs for the next 14.0 days since TLE Epoch: 11/22/2013
Index Date (METOP-B) Time (METOP-B) Lat,Lon (METOP-B) SZA (METOP-B ) Date (NOAA-19) Time (NOAA-19) Lat,Lon (NOAA-19) SZA (NOAA-19 ) Distance(km) Time Diff (sec)
1 12/02/2013 06:29:57 -73.72,-103.07 84.37 12/02/2013 06:28:43 -73.69,-103.56 84.39 15.67 74
2 12/02/2013 07:20:39 73.58, 63.92 95.50 12/02/2013 07:19:39 73.58, 63.96 95.51 1.64 60
3 12/02/2013 08:11:22 -73.56,-128.80 84.52 12/02/2013 08:10:45 -73.59,-128.82 84.49 3.36 37
4 12/02/2013 09:02:01 73.56, 38.54 95.49 12/02/2013 09:01:43 73.58, 38.46 95.51 3.06 18
5 12/02/2013 09:52:44 -73.54,-154.18 84.53 12/02/2013 09:52:48 -73.53,-154.21 84.54 1.34 4
6
